Year,Month,Day,Hour,Minute,Value (Times are PST for temperature in C)
2013,07,14,00,00,11.70
2013,07,14,00,01,11.60
2013,07,14,00,02,11.60
2013,07,14,00,03,11.50
2013,07,14,00,04,11.50
2013,07,14,00,05,11.50
2013,07,14,00,06,11.50
2013,07,14,00,07,11.40
2013,07,14,00,08,11.40
2013,07,14,00,09,11.40
2013,07,14,00,10,11.40
2013,07,14,00,11,11.40
2013,07,14,00,12,11.30
2013,07,14,00,13,11.30
2013,07,14,00,14,11.30
2013,07,14,00,15,11.30
2013,07,14,00,16,11.30
2013,07,14,00,17,11.20
2013,07,14,00,18,11.20
2013,07,14,00,19,11.20
2013,07,14,00,20,11.20
2013,07,14,00,21,11.20
2013,07,14,00,22,11.20
2013,07,14,00,23,11.20
2013,07,14,00,24,11.20
2013,07,14,00,25,11.20
2013,07,14,00,26,11.20
2013,07,14,00,27,11.10
2013,07,14,00,28,11.10
2013,07,14,00,29,11.10
2013,07,14,00,30,11.00
2013,07,14,00,31,11.00
2013,07,14,00,32,11.00
2013,07,14,00,33,11.00
2013,07,14,00,34,10.90
2013,07,14,00,35,10.90
2013,07,14,00,36,10.90
2013,07,14,00,37,10.90
2013,07,14,00,38,10.90
2013,07,14,00,39,10.90
2013,07,14,00,40,10.90
2013,07,14,00,41,10.90
2013,07,14,00,42,10.90
2013,07,14,00,43,10.90
2013,07,14,00,44,10.90
2013,07,14,00,45,10.90
2013,07,14,00,46,10.90
2013,07,14,00,47,10.90
2013,07,14,00,48,10.90
2013,07,14,00,49,10.90
2013,07,14,00,50,10.90
2013,07,14,00,51,10.90
2013,07,14,00,52,10.90
2013,07,14,00,53,10.90
2013,07,14,00,54,10.90
2013,07,14,00,55,10.90
2013,07,14,00,56,10.80
2013,07,14,00,57,10.80
2013,07,14,00,58,10.80
2013,07,14,00,59,10.80
2013,07,14,01,00,10.80
2013,07,14,01,01,10.80
2013,07,14,01,02,10.80
2013,07,14,01,03,10.80
2013,07,14,01,04,10.80
2013,07,14,01,05,10.80
2013,07,14,01,06,10.80
2013,07,14,01,07,10.80
2013,07,14,01,08,10.80
2013,07,14,01,09,10.70
2013,07,14,01,10,10.70
2013,07,14,01,11,10.70
2013,07,14,01,12,10.70
2013,07,14,01,13,10.70
2013,07,14,01,14,10.70
2013,07,14,01,15,10.70
2013,07,14,01,16,10.70
2013,07,14,01,17,10.60
2013,07,14,01,18,10.60
2013,07,14,01,19,10.60
2013,07,14,01,20,10.60
2013,07,14,01,21,10.60
2013,07,14,01,22,10.60
2013,07,14,01,23,10.60
2013,07,14,01,24,10.60
2013,07,14,01,25,10.60
2013,07,14,01,26,10.60
2013,07,14,01,27,10.70
2013,07,14,01,28,10.70
2013,07,14,01,29,10.80
2013,07,14,01,30,10.80
2013,07,14,01,31,10.80
2013,07,14,01,32,10.90
2013,07,14,01,33,10.90
2013,07,14,01,34,10.90
2013,07,14,01,35,11.00
2013,07,14,01,36,11.00
2013,07,14,01,37,11.10
2013,07,14,01,38,11.10
2013,07,14,01,39,11.10
2013,07,14,01,40,11.20
2013,07,14,01,41,11.20
2013,07,14,01,42,11.30
2013,07,14,01,43,11.30
2013,07,14,01,44,11.40
2013,07,14,01,45,11.50
2013,07,14,01,46,11.60
2013,07,14,01,47,11.80
2013,07,14,01,48,11.80
2013,07,14,01,49,11.90
2013,07,14,01,50,11.90
2013,07,14,01,51,12.00
2013,07,14,01,52,12.10
2013,07,14,01,53,12.20
2013,07,14,01,54,12.20
2013,07,14,01,55,12.30
2013,07,14,01,56,12.40
2013,07,14,01,57,12.50
2013,07,14,01,58,12.60
2013,07,14,01,59,12.60
2013,07,14,02,00,12.60
2013,07,14,02,01,12.50
2013,07,14,02,02,12.40
2013,07,14,02,03,12.30
2013,07,14,02,04,12.20
2013,07,14,02,05,12.10
2013,07,14,02,06,12.00
2013,07,14,02,07,11.90
2013,07,14,02,08,11.80
2013,07,14,02,09,11.80
2013,07,14,02,10,11.70
2013,07,14,02,11,11.60
2013,07,14,02,12,11.60
2013,07,14,02,13,11.50
2013,07,14,02,14,11.50
2013,07,14,02,15,11.40
2013,07,14,02,16,11.40
2013,07,14,02,17,11.30
2013,07,14,02,18,11.30
2013,07,14,02,19,11.20
2013,07,14,02,20,11.20
2013,07,14,02,21,11.20
2013,07,14,02,22,11.10
2013,07,14,02,23,11.10
2013,07,14,02,24,11.00
2013,07,14,02,25,11.00
2013,07,14,02,26,10.90
2013,07,14,02,27,10.90
2013,07,14,02,28,10.90
2013,07,14,02,29,10.90
2013,07,14,02,30,10.80
2013,07,14,02,31,10.80
2013,07,14,02,32,10.80
2013,07,14,02,33,10.80
2013,07,14,02,34,10.80
2013,07,14,02,35,10.70
2013,07,14,02,36,10.70
2013,07,14,02,37,10.70
2013,07,14,02,38,10.70
2013,07,14,02,39,10.70
2013,07,14,02,40,10.70
2013,07,14,02,41,10.70
2013,07,14,02,42,10.70
2013,07,14,02,43,10.70
2013,07,14,02,44,10.70
2013,07,14,02,45,10.70
2013,07,14,02,46,10.70
2013,07,14,02,47,10.70
2013,07,14,02,48,10.70
2013,07,14,02,49,10.70
2013,07,14,02,50,10.60
2013,07,14,02,51,10.60
2013,07,14,02,52,10.60
2013,07,14,02,53,10.60
2013,07,14,02,54,10.60
2013,07,14,02,55,10.60
2013,07,14,02,56,10.60
2013,07,14,02,57,10.60
2013,07,14,02,58,10.60
2013,07,14,02,59,10.60
2013,07,14,03,00,10.60
2013,07,14,03,01,10.60
2013,07,14,03,02,10.70
2013,07,14,03,03,10.70
2013,07,14,03,04,10.70
2013,07,14,03,05,10.80
2013,07,14,03,06,10.90
2013,07,14,03,07,11.10
2013,07,14,03,08,11.20
2013,07,14,03,09,11.30
2013,07,14,03,10,11.30
2013,07,14,03,11,11.30
2013,07,14,03,12,11.30
2013,07,14,03,13,11.40
2013,07,14,03,14,11.40
2013,07,14,03,15,11.40
2013,07,14,03,16,11.40
2013,07,14,03,17,11.50
2013,07,14,03,18,11.60
2013,07,14,03,19,11.70
2013,07,14,03,20,11.80
2013,07,14,03,21,12.00
2013,07,14,03,22,12.20
2013,07,14,03,23,12.20
2013,07,14,03,24,12.30
2013,07,14,03,25,12.30
2013,07,14,03,26,12.30
2013,07,14,03,27,12.30
2013,07,14,03,28,12.20
2013,07,14,03,29,12.20
2013,07,14,03,30,12.10
2013,07,14,03,31,12.10
2013,07,14,03,32,12.20
2013,07,14,03,33,12.20
2013,07,14,03,34,12.20
2013,07,14,03,35,12.20
2013,07,14,03,36,12.20
2013,07,14,03,37,12.30
2013,07,14,03,38,12.30
2013,07,14,03,39,12.40
2013,07,14,03,40,12.50
2013,07,14,03,41,12.60
2013,07,14,03,42,12.70
2013,07,14,03,43,12.80
2013,07,14,03,44,12.80
2013,07,14,03,45,12.80
2013,07,14,03,46,12.90
2013,07,14,03,47,12.90
2013,07,14,03,48,13.00
2013,07,14,03,49,13.00
2013,07,14,03,50,13.00
2013,07,14,03,51,13.00
2013,07,14,03,52,13.00
2013,07,14,03,53,13.00
2013,07,14,03,54,13.00
2013,07,14,03,55,13.00
2013,07,14,03,56,13.00
2013,07,14,03,57,13.10
2013,07,14,03,58,13.10
2013,07,14,03,59,13.10
2013,07,14,04,00,13.10
2013,07,14,04,01,13.10
2013,07,14,04,02,13.10
2013,07,14,04,03,13.10
2013,07,14,04,04,13.10
2013,07,14,04,05,13.10
2013,07,14,04,06,13.10
2013,07,14,04,07,13.10
2013,07,14,04,08,13.10
2013,07,14,04,09,13.10
2013,07,14,04,10,13.10
2013,07,14,04,11,13.10
2013,07,14,04,12,13.20
2013,07,14,04,13,13.20
2013,07,14,04,14,13.20
2013,07,14,04,15,13.20
2013,07,14,04,16,13.20
2013,07,14,04,17,13.20
2013,07,14,04,18,13.20
2013,07,14,04,19,13.20
2013,07,14,04,20,13.10
2013,07,14,04,21,13.10
2013,07,14,04,22,13.10
2013,07,14,04,23,13.10
2013,07,14,04,24,13.10
2013,07,14,04,25,13.10
2013,07,14,04,26,13.00
2013,07,14,04,27,13.00
2013,07,14,04,28,13.00
2013,07,14,04,29,12.90
2013,07,14,04,30,12.90
2013,07,14,04,31,12.90
2013,07,14,04,32,12.90
2013,07,14,04,33,12.90
2013,07,14,04,34,12.80
2013,07,14,04,35,12.80
2013,07,14,04,36,12.80
2013,07,14,04,37,12.80
2013,07,14,04,38,12.90
2013,07,14,04,39,12.90
2013,07,14,04,40,12.90
2013,07,14,04,41,12.90
2013,07,14,04,42,12.90
2013,07,14,04,43,12.90
2013,07,14,04,44,12.90
2013,07,14,04,45,12.90
2013,07,14,04,46,12.90
2013,07,14,04,47,12.90
2013,07,14,04,48,12.90
2013,07,14,04,49,12.90
2013,07,14,04,50,12.80
2013,07,14,04,51,12.80
2013,07,14,04,52,12.70
2013,07,14,04,53,12.70
2013,07,14,04,54,12.60
2013,07,14,04,55,12.50
2013,07,14,04,56,12.50
2013,07,14,04,57,12.40
2013,07,14,04,58,12.40
2013,07,14,04,59,12.40
2013,07,14,05,00,12.40
2013,07,14,05,01,12.40
2013,07,14,05,02,12.40
2013,07,14,05,03,12.40
2013,07,14,05,04,12.50
2013,07,14,05,05,12.50
2013,07,14,05,06,12.50
2013,07,14,05,07,12.60
2013,07,14,05,08,12.60
2013,07,14,05,09,12.60
2013,07,14,05,10,12.60
2013,07,14,05,11,12.60
2013,07,14,05,12,12.60
2013,07,14,05,13,12.60
2013,07,14,05,14,12.60
2013,07,14,05,15,12.60
2013,07,14,05,16,12.60
2013,07,14,05,17,12.60
2013,07,14,05,18,12.60
2013,07,14,05,19,12.60
2013,07,14,05,20,12.60
2013,07,14,05,21,12.60
2013,07,14,05,22,12.60
2013,07,14,05,23,12.60
2013,07,14,05,24,12.60
2013,07,14,05,25,12.60
2013,07,14,05,26,12.60
2013,07,14,05,27,12.60
2013,07,14,05,28,12.60
2013,07,14,05,29,12.60
2013,07,14,05,30,12.60
2013,07,14,05,31,12.60
2013,07,14,05,32,12.50
2013,07,14,05,33,12.50
2013,07,14,05,34,12.50
2013,07,14,05,35,12.50
2013,07,14,05,36,12.50
2013,07,14,05,37,12.50
2013,07,14,05,38,12.50
2013,07,14,05,39,12.50
2013,07,14,05,40,12.50
2013,07,14,05,41,12.50
2013,07,14,05,42,12.40
2013,07,14,05,43,12.40
2013,07,14,05,44,12.30
2013,07,14,05,45,12.30
2013,07,14,05,46,12.20
2013,07,14,05,47,12.10
2013,07,14,05,48,12.10
2013,07,14,05,49,12.00
2013,07,14,05,50,12.00
2013,07,14,05,51,12.00
2013,07,14,05,52,12.00
2013,07,14,05,53,12.00
2013,07,14,05,54,12.00
2013,07,14,05,55,12.00
2013,07,14,05,56,12.10
2013,07,14,05,57,12.10
2013,07,14,05,58,12.10
2013,07,14,05,59,12.20
2013,07,14,06,00,12.20
2013,07,14,06,01,12.20
2013,07,14,06,02,12.20
2013,07,14,06,03,12.30
2013,07,14,06,04,12.30
2013,07,14,06,05,12.40
2013,07,14,06,06,12.40
2013,07,14,06,07,12.40
2013,07,14,06,08,12.40
2013,07,14,06,09,12.50
2013,07,14,06,10,12.50
2013,07,14,06,11,12.50
2013,07,14,06,12,12.50
2013,07,14,06,13,12.50
2013,07,14,06,14,12.50
2013,07,14,06,15,12.50
2013,07,14,06,16,12.50
2013,07,14,06,17,12.50
2013,07,14,06,18,12.50
2013,07,14,06,19,12.50
2013,07,14,06,20,12.50
2013,07,14,06,21,12.50
2013,07,14,06,22,12.50
2013,07,14,06,23,12.50
2013,07,14,06,24,12.50
2013,07,14,06,25,12.50
2013,07,14,06,26,12.50
2013,07,14,06,27,12.50
2013,07,14,06,28,12.40
2013,07,14,06,29,12.40
2013,07,14,06,30,12.40
2013,07,14,06,31,12.40
2013,07,14,06,32,12.40
2013,07,14,06,33,12.40
2013,07,14,06,34,12.40
2013,07,14,06,35,12.40
2013,07,14,06,36,12.40
2013,07,14,06,37,12.40
2013,07,14,06,38,12.40
2013,07,14,06,39,12.40
2013,07,14,06,40,12.40
2013,07,14,06,41,12.40
2013,07,14,06,42,12.40
2013,07,14,06,43,12.40
2013,07,14,06,44,12.40
2013,07,14,06,45,12.40
2013,07,14,06,46,12.40
2013,07,14,06,47,12.50
2013,07,14,06,48,12.50
2013,07,14,06,49,12.50
2013,07,14,06,50,12.40
2013,07,14,06,51,12.40
2013,07,14,06,52,12.40
2013,07,14,06,53,12.50
2013,07,14,06,54,12.50
2013,07,14,06,55,12.50
2013,07,14,06,56,12.50
2013,07,14,06,57,12.50
2013,07,14,06,58,12.50
2013,07,14,06,59,12.50
2013,07,14,07,00,12.50
2013,07,14,07,01,12.50
2013,07,14,07,02,12.50
2013,07,14,07,03,12.50
2013,07,14,07,04,12.50
2013,07,14,07,05,12.50
2013,07,14,07,06,12.50
2013,07,14,07,07,12.50
2013,07,14,07,08,12.50
2013,07,14,07,09,12.50
2013,07,14,07,10,12.50
2013,07,14,07,11,12.50
2013,07,14,07,12,12.50
2013,07,14,07,13,12.40
2013,07,14,07,14,12.40
2013,07,14,07,15,12.40
2013,07,14,07,16,12.40
2013,07,14,07,17,12.50
2013,07,14,07,18,12.40
2013,07,14,07,19,12.40
2013,07,14,07,20,12.40
2013,07,14,07,21,12.40
2013,07,14,07,22,12.40
2013,07,14,07,23,12.40
2013,07,14,07,24,12.40
2013,07,14,07,25,12.40
2013,07,14,07,26,12.40
2013,07,14,07,27,12.40
2013,07,14,07,28,12.40
2013,07,14,07,29,12.40
2013,07,14,07,30,12.40
2013,07,14,07,31,12.50
2013,07,14,07,32,12.50
2013,07,14,07,33,12.50
2013,07,14,07,34,12.50
2013,07,14,07,35,12.50
2013,07,14,07,36,12.50
2013,07,14,07,37,12.40
2013,07,14,07,38,12.40
2013,07,14,07,39,12.40
2013,07,14,07,40,12.40
2013,07,14,07,41,12.40
2013,07,14,07,42,12.40
2013,07,14,07,43,12.40
2013,07,14,07,44,12.40
2013,07,14,07,45,12.50
2013,07,14,07,46,12.50
2013,07,14,07,47,12.50
2013,07,14,07,48,12.50
2013,07,14,07,49,12.60
2013,07,14,07,50,12.60
2013,07,14,07,51,12.60
2013,07,14,07,52,12.60
2013,07,14,07,53,12.70
2013,07,14,07,54,12.70
2013,07,14,07,55,12.70
2013,07,14,07,56,12.70
2013,07,14,07,57,12.80
2013,07,14,07,58,12.80
2013,07,14,07,59,12.80
2013,07,14,08,00,12.80
2013,07,14,08,01,12.80
2013,07,14,08,02,12.80
2013,07,14,08,03,12.90
2013,07,14,08,04,12.90
2013,07,14,08,05,12.90
2013,07,14,08,06,12.90
2013,07,14,08,07,12.90
2013,07,14,08,08,12.90
2013,07,14,08,09,13.00
2013,07,14,08,10,13.00
2013,07,14,08,11,13.00
2013,07,14,08,12,13.00
2013,07,14,08,13,13.00
2013,07,14,08,14,13.00
2013,07,14,08,15,13.00
2013,07,14,08,16,13.00
2013,07,14,08,17,13.00
2013,07,14,08,18,13.00
2013,07,14,08,19,13.00
2013,07,14,08,20,13.00
2013,07,14,08,21,13.00
2013,07,14,08,22,13.00
2013,07,14,08,23,13.00
2013,07,14,08,24,13.00
2013,07,14,08,25,13.00
2013,07,14,08,26,13.00
2013,07,14,08,27,13.00
2013,07,14,08,28,13.00
2013,07,14,08,29,13.00
2013,07,14,08,30,13.00
2013,07,14,08,31,13.00
2013,07,14,08,32,13.10
2013,07,14,08,33,13.10
2013,07,14,08,34,13.10
2013,07,14,08,35,13.10
2013,07,14,08,36,13.10
2013,07,14,08,37,13.10
2013,07,14,08,38,13.10
2013,07,14,08,39,13.10
2013,07,14,08,40,13.10
2013,07,14,08,41,13.10
2013,07,14,08,42,13.20
2013,07,14,08,43,13.20
2013,07,14,08,44,13.20
2013,07,14,08,45,13.20
2013,07,14,08,46,13.20
2013,07,14,08,47,13.20
2013,07,14,08,48,13.20
2013,07,14,08,49,13.20
2013,07,14,08,50,13.30
2013,07,14,08,51,13.30
2013,07,14,08,52,13.30
2013,07,14,08,53,13.30
2013,07,14,08,54,13.30
2013,07,14,08,55,13.30
2013,07,14,08,56,13.30
2013,07,14,08,57,13.30
2013,07,14,08,58,13.40
2013,07,14,08,59,13.40
2013,07,14,09,00,13.40
2013,07,14,09,01,13.40
2013,07,14,09,02,13.40
2013,07,14,09,03,13.40
2013,07,14,09,04,13.40
2013,07,14,09,05,13.40
2013,07,14,09,06,13.40
2013,07,14,09,07,13.40
2013,07,14,09,08,13.40
2013,07,14,09,09,13.40
2013,07,14,09,10,13.40
2013,07,14,09,11,13.50
2013,07,14,09,12,13.50
2013,07,14,09,13,13.50
2013,07,14,09,14,13.60
2013,07,14,09,15,13.60
2013,07,14,09,16,13.70
2013,07,14,09,17,13.70
2013,07,14,09,18,13.70
2013,07,14,09,19,13.80
2013,07,14,09,20,13.90
2013,07,14,09,21,13.90
2013,07,14,09,22,14.00
2013,07,14,09,23,14.10
2013,07,14,09,24,14.10
2013,07,14,09,25,14.10
2013,07,14,09,26,14.20
2013,07,14,09,27,14.20
2013,07,14,09,28,14.20
2013,07,14,09,29,14.20
2013,07,14,09,30,14.30
2013,07,14,09,31,14.30
2013,07,14,09,32,14.40
2013,07,14,09,33,14.40
2013,07,14,09,34,14.50
2013,07,14,09,35,14.50
2013,07,14,09,36,14.60
2013,07,14,09,37,14.60
2013,07,14,09,38,14.60
2013,07,14,09,39,14.70
2013,07,14,09,40,14.80
2013,07,14,09,41,14.80
2013,07,14,09,42,14.90
2013,07,14,09,43,15.00
2013,07,14,09,44,15.00
2013,07,14,09,45,15.10
2013,07,14,09,46,15.20
2013,07,14,09,47,15.20
2013,07,14,09,48,15.20
2013,07,14,09,49,15.30
2013,07,14,09,50,15.30
2013,07,14,09,51,15.30
2013,07,14,09,52,15.30
2013,07,14,09,53,15.30
2013,07,14,09,54,15.30
2013,07,14,09,55,15.40
2013,07,14,09,56,15.40
2013,07,14,09,57,15.40
2013,07,14,09,58,15.50
2013,07,14,09,59,15.50
2013,07,14,10,00,15.50
2013,07,14,10,01,15.60
2013,07,14,10,02,15.60
2013,07,14,10,03,15.70
2013,07,14,10,04,15.70
2013,07,14,10,05,15.80
2013,07,14,10,06,15.80
2013,07,14,10,07,15.90
2013,07,14,10,08,16.00
2013,07,14,10,09,16.10
2013,07,14,10,10,16.10
2013,07,14,10,11,16.20
2013,07,14,10,12,16.20
2013,07,14,10,13,16.30
2013,07,14,10,14,16.30
2013,07,14,10,15,16.40
2013,07,14,10,16,16.40
2013,07,14,10,17,16.50
2013,07,14,10,18,16.50
2013,07,14,10,19,16.50
2013,07,14,10,20,16.50
2013,07,14,10,21,16.50
2013,07,14,10,22,16.50
2013,07,14,10,23,16.60
2013,07,14,10,24,16.60
2013,07,14,10,25,16.60
2013,07,14,10,26,16.70
2013,07,14,10,27,16.70
2013,07,14,10,28,16.70
2013,07,14,10,29,16.70
2013,07,14,10,30,16.70
2013,07,14,10,31,16.80
2013,07,14,10,32,16.80
2013,07,14,10,33,16.80
2013,07,14,10,34,16.80
2013,07,14,10,35,16.90
2013,07,14,10,36,16.90
2013,07,14,10,37,16.90
2013,07,14,10,38,16.90
2013,07,14,10,39,16.90
2013,07,14,10,40,16.90
2013,07,14,10,41,16.90
2013,07,14,10,42,16.90
2013,07,14,10,43,16.90
2013,07,14,10,44,16.90
2013,07,14,10,45,16.90
2013,07,14,10,46,16.90
2013,07,14,10,47,16.90
2013,07,14,10,48,16.90
2013,07,14,10,49,16.90
2013,07,14,10,50,17.00
2013,07,14,10,51,17.00
2013,07,14,10,52,17.10
2013,07,14,10,53,17.10
2013,07,14,10,54,17.20
2013,07,14,10,55,17.20
2013,07,14,10,56,17.30
2013,07,14,10,57,17.30
2013,07,14,10,58,17.30
2013,07,14,10,59,17.40
2013,07,14,11,00,17.40
2013,07,14,11,01,17.50
2013,07,14,11,02,17.50
2013,07,14,11,03,17.60
2013,07,14,11,04,17.60
2013,07,14,11,05,17.60
2013,07,14,11,06,17.60
2013,07,14,11,07,17.70
2013,07,14,11,08,17.70
2013,07,14,11,09,17.70
2013,07,14,11,10,17.80
2013,07,14,11,11,17.80
2013,07,14,11,12,17.80
2013,07,14,11,13,17.80
2013,07,14,11,14,17.80
2013,07,14,11,15,17.80
2013,07,14,11,16,17.90
2013,07,14,11,17,17.90
2013,07,14,11,18,17.90
2013,07,14,11,19,17.90
2013,07,14,11,20,17.90
2013,07,14,11,21,17.90
2013,07,14,11,22,18.00
2013,07,14,11,23,18.00
2013,07,14,11,24,17.90
2013,07,14,11,25,17.90
2013,07,14,11,26,17.90
2013,07,14,11,27,17.90
2013,07,14,11,28,17.90
2013,07,14,11,29,17.90
2013,07,14,11,30,17.90
2013,07,14,11,31,17.90
2013,07,14,11,32,17.90
2013,07,14,11,33,17.80
2013,07,14,11,34,17.80
2013,07,14,11,35,17.90
2013,07,14,11,36,17.90
2013,07,14,11,37,18.00
2013,07,14,11,38,18.00
2013,07,14,11,39,18.00
2013,07,14,11,40,18.10
2013,07,14,11,41,18.10
2013,07,14,11,42,18.30
2013,07,14,11,43,18.40
2013,07,14,11,44,18.50
2013,07,14,11,45,18.50
2013,07,14,11,46,18.60
2013,07,14,11,47,18.60
2013,07,14,11,48,18.60
2013,07,14,11,49,18.60
2013,07,14,11,50,18.70
2013,07,14,11,51,18.70
2013,07,14,11,52,18.70
2013,07,14,11,53,18.80
2013,07,14,11,54,18.80
2013,07,14,11,55,18.90
2013,07,14,11,56,18.90
2013,07,14,11,57,18.90
2013,07,14,11,58,18.90
2013,07,14,11,59,19.00
2013,07,14,12,00,19.00
2013,07,14,12,01,19.10
2013,07,14,12,02,19.20
2013,07,14,12,03,19.20
2013,07,14,12,04,19.30
2013,07,14,12,05,19.30
2013,07,14,12,06,19.40
2013,07,14,12,07,19.40
2013,07,14,12,08,19.50
2013,07,14,12,09,19.50
2013,07,14,12,10,19.50
2013,07,14,12,11,19.50
2013,07,14,12,12,19.60
2013,07,14,12,13,19.60
2013,07,14,12,14,19.60
2013,07,14,12,15,19.80
2013,07,14,12,16,19.80
2013,07,14,12,17,19.90
2013,07,14,12,18,20.00
2013,07,14,12,19,20.10
2013,07,14,12,20,20.20
2013,07,14,12,21,20.30
2013,07,14,12,22,20.30
2013,07,14,12,23,20.30
2013,07,14,12,24,20.40
2013,07,14,12,25,20.40
2013,07,14,12,26,20.40
2013,07,14,12,27,20.40
2013,07,14,12,28,20.50
2013,07,14,12,29,20.60
2013,07,14,12,30,20.70
2013,07,14,12,31,20.70
2013,07,14,12,32,20.70
2013,07,14,12,33,20.70
2013,07,14,12,34,20.70
2013,07,14,12,35,20.70
2013,07,14,12,36,20.70
2013,07,14,12,37,20.70
2013,07,14,12,38,20.70
2013,07,14,12,39,20.70
2013,07,14,12,40,20.80
2013,07,14,12,41,20.90
2013,07,14,12,42,21.00
2013,07,14,12,43,21.10
2013,07,14,12,44,21.10
2013,07,14,12,45,21.10
2013,07,14,12,46,21.10
2013,07,14,12,47,21.10
2013,07,14,12,48,21.00
2013,07,14,12,49,21.10
2013,07,14,12,50,21.10
2013,07,14,12,51,21.10
2013,07,14,12,52,21.20
2013,07,14,12,53,21.30
2013,07,14,12,54,21.40
2013,07,14,12,55,21.50
2013,07,14,12,56,21.60
2013,07,14,12,57,21.50
2013,07,14,12,58,21.40
2013,07,14,12,59,21.40
2013,07,14,13,00,21.30
2013,07,14,13,01,21.20
2013,07,14,13,02,21.10
2013,07,14,13,03,21.10
2013,07,14,13,04,21.00
2013,07,14,13,05,21.00
2013,07,14,13,06,21.00
2013,07,14,13,07,21.00
2013,07,14,13,08,21.00
2013,07,14,13,09,21.00
2013,07,14,13,10,21.00
2013,07,14,13,11,21.10
2013,07,14,13,12,21.20
2013,07,14,13,13,21.30
2013,07,14,13,14,21.40
2013,07,14,13,15,21.50
2013,07,14,13,16,21.60
2013,07,14,13,17,21.60
2013,07,14,13,18,21.60
2013,07,14,13,19,21.60
2013,07,14,13,20,21.70
2013,07,14,13,21,21.80
2013,07,14,13,22,21.90
2013,07,14,13,23,22.00
2013,07,14,13,24,22.00
2013,07,14,13,25,22.10
2013,07,14,13,26,22.30
2013,07,14,13,27,22.40
2013,07,14,13,28,22.50
2013,07,14,13,29,22.60
2013,07,14,13,30,22.70
2013,07,14,13,31,22.70
2013,07,14,13,32,22.70
2013,07,14,13,33,22.70
2013,07,14,13,34,22.70
2013,07,14,13,35,22.70
2013,07,14,13,36,22.80
2013,07,14,13,37,22.90
2013,07,14,13,38,22.90
2013,07,14,13,39,23.00
2013,07,14,13,40,23.00
2013,07,14,13,41,23.10
2013,07,14,13,42,23.20
2013,07,14,13,43,23.30
2013,07,14,13,44,23.30
2013,07,14,13,45,23.30
2013,07,14,13,46,23.30
2013,07,14,13,47,23.20
2013,07,14,13,48,23.20
2013,07,14,13,49,23.10
2013,07,14,13,50,23.10
2013,07,14,13,51,23.10
2013,07,14,13,52,23.10
2013,07,14,13,53,23.20
2013,07,14,13,54,23.30
2013,07,14,13,55,23.40
2013,07,14,13,56,23.50
2013,07,14,13,57,23.70
2013,07,14,13,58,23.80
2013,07,14,13,59,23.80
2013,07,14,14,00,23.80
2013,07,14,14,01,23.70
2013,07,14,14,02,23.60
2013,07,14,14,03,23.60
2013,07,14,14,04,23.50
2013,07,14,14,05,23.40
2013,07,14,14,06,23.50
2013,07,14,14,07,23.60
2013,07,14,14,08,23.70
2013,07,14,14,09,23.80
2013,07,14,14,10,23.90
2013,07,14,14,11,23.90
2013,07,14,14,12,23.90
2013,07,14,14,13,23.90
2013,07,14,14,14,23.80
2013,07,14,14,15,23.80
2013,07,14,14,16,23.60
2013,07,14,14,17,23.50
2013,07,14,14,18,23.40
2013,07,14,14,19,23.30
2013,07,14,14,20,23.20
2013,07,14,14,21,23.20
2013,07,14,14,22,23.10
2013,07,14,14,23,23.20
2013,07,14,14,24,23.20
2013,07,14,14,25,23.30
2013,07,14,14,26,23.40
2013,07,14,14,27,23.40
2013,07,14,14,28,23.40
2013,07,14,14,29,23.30
2013,07,14,14,30,23.30
2013,07,14,14,31,23.30
2013,07,14,14,32,23.30
2013,07,14,14,33,23.40
2013,07,14,14,34,23.60
2013,07,14,14,35,23.80
2013,07,14,14,36,23.90
2013,07,14,14,37,24.10
2013,07,14,14,38,24.20
2013,07,14,14,39,24.30
2013,07,14,14,40,24.40
2013,07,14,14,41,24.40
2013,07,14,14,42,24.50
2013,07,14,14,43,24.50
2013,07,14,14,44,24.50
2013,07,14,14,45,24.40
2013,07,14,14,46,24.30
2013,07,14,14,47,24.30
2013,07,14,14,48,24.20
2013,07,14,14,49,24.10
2013,07,14,14,50,24.00
2013,07,14,14,51,23.90
2013,07,14,14,52,23.80
2013,07,14,14,53,23.80
2013,07,14,14,54,23.80
2013,07,14,14,55,23.90
2013,07,14,14,56,23.90
2013,07,14,14,57,24.00
2013,07,14,14,58,24.00
2013,07,14,14,59,24.00
2013,07,14,15,00,24.00
2013,07,14,15,01,24.00
2013,07,14,15,02,24.10
2013,07,14,15,03,24.20
2013,07,14,15,04,24.30
2013,07,14,15,05,24.40
2013,07,14,15,06,24.40
2013,07,14,15,07,24.40
2013,07,14,15,08,24.40
2013,07,14,15,09,24.40
2013,07,14,15,10,24.40
2013,07,14,15,11,24.50
2013,07,14,15,12,24.50
2013,07,14,15,13,24.70
2013,07,14,15,14,24.80
2013,07,14,15,15,24.90
2013,07,14,15,16,24.90
2013,07,14,15,17,24.80
2013,07,14,15,18,24.80
2013,07,14,15,19,24.70
2013,07,14,15,20,24.60
2013,07,14,15,21,24.50
2013,07,14,15,22,24.50
2013,07,14,15,23,24.50
2013,07,14,15,24,24.50
2013,07,14,15,25,24.50
2013,07,14,15,26,24.50
2013,07,14,15,27,24.50
2013,07,14,15,28,24.60
2013,07,14,15,29,24.60
2013,07,14,15,30,24.70
2013,07,14,15,31,24.70
2013,07,14,15,32,24.70
2013,07,14,15,33,24.60
2013,07,14,15,34,24.60
2013,07,14,15,35,24.60
2013,07,14,15,36,24.60
2013,07,14,15,37,24.60
2013,07,14,15,38,24.60
2013,07,14,15,39,24.50
2013,07,14,15,40,24.50
2013,07,14,15,41,24.40
2013,07,14,15,42,24.40
2013,07,14,15,43,24.40
2013,07,14,15,44,24.40
2013,07,14,15,45,24.40
2013,07,14,15,46,24.40
2013,07,14,15,47,24.50
2013,07,14,15,48,24.50
2013,07,14,15,49,24.60
2013,07,14,15,50,24.60
2013,07,14,15,51,24.70
2013,07,14,15,52,24.70
2013,07,14,15,53,24.70
2013,07,14,15,54,24.70
2013,07,14,15,55,24.70
2013,07,14,15,56,24.70
2013,07,14,15,57,24.80
2013,07,14,15,58,24.80
2013,07,14,15,59,24.80
2013,07,14,16,00,24.80
2013,07,14,16,01,24.70
2013,07,14,16,02,24.70
2013,07,14,16,03,24.60
2013,07,14,16,04,24.50
2013,07,14,16,05,24.50
2013,07,14,16,06,24.50
2013,07,14,16,07,24.60
2013,07,14,16,08,24.60
2013,07,14,16,09,24.60
2013,07,14,16,10,24.60
2013,07,14,16,11,24.60
2013,07,14,16,12,24.60
2013,07,14,16,13,24.50
2013,07,14,16,14,24.40
2013,07,14,16,15,24.40
2013,07,14,16,16,24.30
2013,07,14,16,17,24.30
2013,07,14,16,18,24.30
2013,07,14,16,19,24.30
2013,07,14,16,20,24.30
2013,07,14,16,21,24.30
2013,07,14,16,22,24.30
2013,07,14,16,23,24.40
2013,07,14,16,24,24.50
2013,07,14,16,25,24.50
2013,07,14,16,26,24.60
2013,07,14,16,27,24.50
2013,07,14,16,28,24.40
2013,07,14,16,29,24.40
2013,07,14,16,30,24.40
2013,07,14,16,31,24.30
2013,07,14,16,32,24.30
2013,07,14,16,33,24.20
2013,07,14,16,34,24.20
2013,07,14,16,35,24.30
2013,07,14,16,36,24.30
2013,07,14,16,37,24.30
2013,07,14,16,38,24.30
2013,07,14,16,39,24.30
2013,07,14,16,40,24.30
2013,07,14,16,41,24.30
2013,07,14,16,42,24.40
2013,07,14,16,43,24.40
2013,07,14,16,44,24.40
2013,07,14,16,45,24.40
2013,07,14,16,46,24.40
2013,07,14,16,47,24.40
2013,07,14,16,48,24.40
2013,07,14,16,49,24.40
2013,07,14,16,50,24.40
2013,07,14,16,51,24.40
2013,07,14,16,52,24.40
2013,07,14,16,53,24.40
2013,07,14,16,54,24.40
2013,07,14,16,55,24.30
2013,07,14,16,56,24.30
2013,07,14,16,57,24.30
2013,07,14,16,58,24.30
2013,07,14,16,59,24.30
2013,07,14,17,00,24.30
2013,07,14,17,01,24.30
2013,07,14,17,02,24.30
2013,07,14,17,03,24.30
2013,07,14,17,04,24.30
2013,07,14,17,05,24.30
2013,07,14,17,06,24.30
2013,07,14,17,07,24.20
2013,07,14,17,08,24.30
2013,07,14,17,09,24.20
2013,07,14,17,10,24.20
2013,07,14,17,11,24.20
2013,07,14,17,12,24.20
2013,07,14,17,13,24.20
2013,07,14,17,14,24.20
2013,07,14,17,15,24.20
2013,07,14,17,16,24.20
2013,07,14,17,17,24.20
2013,07,14,17,18,24.20
2013,07,14,17,19,24.20